[[{"header":{"parameterUnit":"m.s-1","parameterCategory":2,"la1":30.2991,"la2":30.254,"lo1":-89.0895,"lo2":-89.0444,"dy":0.0017,"dx":0.0017,"nx":28,"ny":28,"refTime":"2023-07-23T21:00:00:Z","depth":"0","parameterNumber":2,"parameterNumberName":"U-component_of_CURRENTS"},"data":[0,0,0,0,0,0,0,0,0,0,0,0,0,0,0,0,0,0,0,0,0,0,0,0,0,0,0,0,0,0,0,0,0,0,0,0,0,0,0,0,0,0,0,0,0,0,0,0,0,0,0,0,0,0,0,0,0,0,-0.1232,-0.1232,0,-0.1209,-0.1208,-0.1207,-0.1254,-0.1256,-0.1258,-0.1259,-0.1228,-0.1225,-0.1222,0,0,0,0,0,0,0,0,0,0,0,0,0,-0.1226,-0.1226,-0.1232,-0.1232,-0.1232,-0.1209,-0.1208,-0.1207,-0.1253,-0.1256,-0.1258,-0.126,-0.1229,-0.1225,-0.1222,0,0,0,0,0,0,0,0,0,0,0,0,0,-0.1213,-0.1226,-0.1232,-0.1256,-0.1259,-0.1209,-0.1208,-0.1207,-0.1253,-0.1256,-0.1259,-0.1262,-0.123,-0.1226,-0.1222,-0.1136,0,0,-0.1209,-0.1207,0,0,0,0,0,0,0,0,-0.1214,-0.1213,-0.1253,-0.1255,-0.1257,-0.1242,-0.1195,-0.1185,-0.1252,-0.1249,-0.126,-0.1263,-0.1233,-0.1229,-0.121,-0.1134,-0.1133,-0.1209,-0.1206,-0.1205,-0.1203,0,0,0,0,0,0,0,-0.1215,-0.1214,-0.1217,-0.1253,-0.1256,-0.1239,-0.124,-0.1192,-0.122,-0.125,-0.1254,-0.126,-0.1234,-0.1214,-0.121,-0.1132,-0.1209,-0.1205,-0.1203,-0.1201,-0.0991,-0.0988,0,0,0,0,0,0,-0.123,-0.1215,-0.1218,-0.1217,-0.1249,-0.1237,-0.1239,-0.1239,-0.1221,-0.1222,-0.1257,-0.1262,-0.1219,-0.1214,-0.1209,-0.1128,-0.1205,-0.1201,-0.1198,-0.0994,-0.099,-0.0987,0,0,0,0,0,0,-0.123,-0.123,-0.1219,-0.122,-0.1218,-0.1235,-0.1235,-0.1237,-0.1222,-0.1228,-0.1229,-0.1241,-0.1221,-0.1215,-0.1161,-0.1127,-0.1199,-0.1195,-0.0998,-0.0993,-0.0989,-0.0952,0,0,0,0,0,0,-0.123,-0.123,-0.1211,-0.1221,-0.1219,-0.1184,-0.1232,-0.1235,-0.1223,-0.1229,-0.1213,-0.1213,-0.1223,-0.1167,-0.1157,-0.1123,-0.1192,-0.1002,-0.0996,-0.099,-0.0958,-0.0947,-0.0938,0,0,0,0,0,-0.1229,-0.1186,-0.121,-0.1209,-0.12,-0.1183,-0.1178,-0.1197,-0.1219,-0.1196,-0.1189,-0.1214,-0.1123,-0.1161,-0.115,-0.1114,-0.1005,-0.0997,-0.0991,-0.0962,-0.0949,-0.0938,0,0,0,0,0,0,-0.1148,-0.1187,-0.1214,-0.1179,-0.1185,-0.1193,-0.1158,-0.1182,-0.1153,-0.1154,-0.117,-0.1167,-0.1107,-0.1099,-0.114,-0.1031,-0.1068,-0.1058,-0.1049,-0.1037,-0.1028,-0.107,-0.1189,0,0,0,0,0,-0.1129,-0.112,-0.1153,-0.1119,-0.112,-0.1137,-0.1125,-0.1145,-0.1136,-0.1128,-0.1123,-0.1099,-0.1061,-0.1046,-0.1008,-0.0941,-0.0974,-0.0908,-0.0898,-0.089,-0.0913,-0.0916,-0.0911,-0.0964,-0.0964,-0.0964,0,0,-0.1086,-0.1105,-0.1097,-0.1103,-0.1102,-0.1091,-0.1134,-0.111,-0.1103,-0.1123,-0.1081,-0.1058,-0.1032,-0.097,-0.0942,-0.0967,-0.0887,-0.0881,-0.0875,-0.0903,-0.0908,-0.0904,-0.09,-0.0959,-0.096,-0.0961,0,0,-0.1006,-0.1014,-0.0992,-0.0997,-0.1008,-0.1025,-0.1021,-0.1028,-0.1032,-0.0989,-0.1002,-0.0968,-0.0903,-0.0895,-0.0879,-0.0783,-0.0831,-0.0754,-0.0747,-0.0749,-0.0746,-0.0745,-0.0777,-0.0779,-0.0755,-0.0755,-0.0755,0,-0.0959,-0.095,-0.0973,-0.0957,-0.0965,-0.0999,-0.0985,-0.0973,-0.0964,-0.0972,-0.0971,-0.0903,-0.0874,-0.0832,-0.08,-0.0767,-0.0788,-0.0802,-0.0743,-0.0741,-0.074,-0.0775,-0.0777,-0.0753,-0.0753,-0.0753,-0.0754,0,-0.0882,-0.0876,-0.0851,-0.0869,-0.0864,-0.0849,-0.0873,-0.0865,-0.0878,-0.0891,-0.0854,-0.0816,-0.0803,-0.0758,-0.075,-0.0714,-0.0738,-0.0731,-0.079,-0.0734,-0.0772,-0.0775,-0.0749,-0.075,-0.0751,-0.0751,0,0,-0.0805,-0.0808,-0.0806,-0.0824,-0.0832,-0.0833,-0.0812,-0.0832,-0.0855,-0.0816,-0.084,-0.0746,-0.0765,-0.0747,-0.0726,-0.0711,-0.0705,-0.0717,-0.0718,-0.0782,-0.0736,-0.0789,-0.0798,-0.0692,-0.0692,-0.0692,-0.0767,0,-0.0758,-0.0735,-0.0748,-0.0736,-0.0736,-0.0774,-0.0769,-0.0786,-0.0805,-0.0826,-0.08,-0.0793,-0.0749,-0.0751,-0.0725,-0.0719,-0.0711,-0.0687,-0.0753,-0.0756,-0.0836,-0.0802,-0.0836,-0.0909,-0.077,-0.0771,-0.0771,0,-0.0701,-0.0708,-0.0686,-0.0731,-0.0736,-0.0732,-0.0788,-0.0787,-0.0819,-0.0838,-0.0838,-0.0841,-0.0819,-0.0786,-0.0768,-0.0759,-0.0746,-0.0733,-0.0735,-0.081,-0.0815,-0.0937,-0.092,-0.0932,-0.0777,-0.0777,-0.0776,0,-0.0673,-0.0678,-0.0675,-0.0679,-0.0711,-0.0726,-0.0753,-0.0791,-0.0817,-0.086,-0.0898,-0.088,-0.0894,-0.0859,-0.0838,-0.0808,-0.0838,-0.0799,-0.0835,-0.084,-0.0897,-0.0907,-0.0932,-0.0785,-0.0785,-0.0785,-0.0784,0,-0.0638,-0.0641,-0.0667,-0.0664,-0.0688,-0.0718,-0.0754,-0.0789,-0.0846,-0.0891,-0.0907,-0.0948,-0.0911,-0.0927,-0.088,-0.0893,-0.0878,-0.085,-0.0862,-0.0882,-0.0889,-0.0926,-0.092,-0.0787,-0.0787,-0.0786,-0.0786,0,-0.0598,-0.0608,-0.0612,-0.065,-0.0666,-0.0682,-0.075,-0.0785,-0.0852,-0.0918,-0.0937,-0.1009,-0.1046,-0.1024,-0.1003,-0.0973,-0.0964,-0.0961,-0.1008,-0.1023,-0.1059,-0.105,-0.1069,-0.1028,-0.102,-0.1021,-0.1023,0,-0.0584,-0.057,-0.059,-0.0597,-0.0612,-0.065,-0.0681,-0.0762,-0.0806,-0.0954,-0.0983,-0.1075,-0.1141,-0.1171,-0.113,-0.111,-0.1045,-0.1128,-0.1059,-0.1085,-0.1082,-0.1022,-0.098,-0.1119,-0.1121,-0.1123,-0.1124,0,-0.0552,-0.0541,-0.054,-0.0542,-0.0567,-0.0609,-0.0666,-0.0711,-0.0825,-0.0923,-0.1068,-0.1155,-0.1235,-0.1282,-0.1277,-0.1227,-0.113,-0.1163,-0.1167,-0.1154,-0.1114,-0.1073,-0.1064,-0.1139,-0.1138,-0.1137,-0.1136,-0.1135,-0.0522,-0.0506,-0.0484,-0.0484,-0.0519,-0.0565,-0.0577,-0.067,-0.077,-0.0914,-0.1082,-0.1226,-0.1391,-0.1404,-0.1359,-0.1331,-0.1232,-0.1295,-0.1283,-0.122,-0.1174,-0.1221,-0.1318,-0.1317,-0.1317,-0.1316,-0.1316,0,-0.0492,-0.0457,-0.044,-0.0439,-0.0456,-0.0491,-0.0557,-0.0553,-0.0652,-0.085,-0.1016,-0.1324,-0.1447,-0.1497,-0.1533,-0.1478,-0.1354,-0.1429,-0.1343,-0.1288,-0.133,-0.1329,-0.1461,-0.1461,-0.1461,-0.1461,-0.1461,-0.1461,-0.0474,-0.0422,-0.0394,-0.0371,-0.0383,-0.0389,-0.0412,-0.0427,-0.0505,-0.0696,-0.0909,-0.1052,-0.1246,-0.1621,-0.165,-0.1578,-0.1465,-0.1452,-0.1372,-0.142,-0.1405,-0.1391,-0.1388,-0.1531,-0.1531,-0.1296,-0.1295,-0.1294]},{"header":{"parameterUnit":"m.s-1","parameterCategory":2,"la1":30.2991,"la2":30.254,"lo1":-89.0895,"lo2":-89.0444,"dy":0.0017,"dx":0.0017,"nx":28,"ny":28,"refTime":"2023-07-23T21:00:00:Z","depth":"0","parameterNumber":3,"parameterNumberName":"V-component_of_CURRENTS"},"data":[0,0,0,0,0,0,0,0,0,0,0,0,0,0,0,0,0,0,0,0,0,0,0,0,0,0,0,0,0,0,0,0,0,0,0,0,0,0,0,0,0,0,0,0,0,0,0,0,0,0,0,0,0,0,0,0,0,0,0.0728,0.0728,0,0.077,0.0771,0.0771,0.0741,0.0739,0.0738,0.0737,0.0747,0.0748,0.075,0,0,0,0,0,0,0,0,0,0,0,0,0,0.068,0.0681,0.0728,0.0728,0.0729,0.077,0.0771,0.0772,0.0741,0.0739,0.0738,0.0736,0.0746,0.0748,0.075,0,0,0,0,0,0,0,0,0,0,0,0,0,0.0709,0.0681,0.0728,0.0719,0.0718,0.077,0.0771,0.0772,0.0741,0.0739,0.0737,0.0735,0.0746,0.0748,0.075,0.0805,0,0,0.0757,0.0758,0,0,0,0,0,0,0,0,0.0708,0.0711,0.072,0.0719,0.0719,0.0748,0.0758,0.0781,0.0742,0.0733,0.0737,0.0734,0.0746,0.0748,0.0761,0.0805,0.0806,0.0757,0.0759,0.076,0.076,0,0,0,0,0,0,0,0.0706,0.0709,0.0745,0.072,0.072,0.0733,0.0734,0.0763,0.0749,0.0733,0.0731,0.0737,0.0745,0.0759,0.0761,0.0806,0.0757,0.0759,0.0761,0.0762,0.0902,0.0904,0,0,0,0,0,0,0.07,0.0707,0.0743,0.0746,0.0708,0.0735,0.0737,0.0741,0.075,0.0749,0.0738,0.0735,0.0756,0.0758,0.0761,0.0816,0.076,0.0762,0.0763,0.09,0.0903,0.0905,0,0,0,0,0,0,0.0699,0.0703,0.0742,0.0728,0.0733,0.0738,0.0743,0.0743,0.075,0.0754,0.0752,0.0744,0.0754,0.0758,0.0806,0.0816,0.0763,0.0765,0.0897,0.0901,0.0904,0.0933,0,0,0,0,0,0,0.0697,0.0702,0.0707,0.0727,0.0734,0.0786,0.0745,0.0745,0.0757,0.0753,0.0759,0.0758,0.0753,0.0803,0.0808,0.0818,0.0767,0.0894,0.0899,0.0903,0.0929,0.0937,0.0944,0,0,0,0,0,0.0695,0.0718,0.0707,0.0712,0.074,0.0788,0.0794,0.079,0.0759,0.0784,0.079,0.0758,0.0833,0.0807,0.0813,0.0824,0.0892,0.0897,0.0903,0.0926,0.0935,0.0944,0,0,0,0,0,0,0.0719,0.0718,0.0706,0.0732,0.0761,0.0783,0.0805,0.0796,0.082,0.0813,0.0799,0.0801,0.0844,0.0846,0.0817,0.0882,0.0854,0.0861,0.0869,0.0879,0.0886,0.083,0.0769,0,0,0,0,0,0.0723,0.0729,0.0745,0.0771,0.0782,0.0791,0.0808,0.081,0.0832,0.0838,0.0842,0.0853,0.0875,0.0885,0.0911,0.0955,0.0933,0.0966,0.0974,0.098,0.0942,0.0947,0.095,0.0923,0.0923,0.0923,0,0,0.0738,0.0742,0.0745,0.0775,0.0791,0.0815,0.0797,0.0836,0.0847,0.0839,0.0864,0.0885,0.0897,0.0941,0.0959,0.094,0.0986,0.0986,0.0991,0.0949,0.0953,0.0955,0.0956,0.0926,0.0926,0.0925,0,0,0.0774,0.0779,0.0787,0.0812,0.0841,0.085,0.0859,0.0887,0.089,0.0935,0.0922,0.0953,0.0993,0.0998,0.1003,0.1073,0.1029,0.1085,0.1068,0.1076,0.1076,0.1076,0.1078,0.1078,0.1082,0.1083,0.1083,0,0.0792,0.0795,0.0808,0.083,0.0838,0.086,0.0874,0.0901,0.0941,0.0935,0.0948,0.0988,0.1012,0.1025,0.1049,0.1083,0.1072,0.1028,0.108,0.108,0.1079,0.108,0.108,0.1085,0.1084,0.1084,0.1084,0,0.0823,0.0829,0.0849,0.0859,0.0884,0.0913,0.0935,0.0959,0.0962,0.0968,0.0995,0.1041,0.1044,0.1077,0.1081,0.109,0.1081,0.109,0.1043,0.1082,0.1083,0.1082,0.1087,0.1087,0.1086,0.1086,0,0,0.0843,0.0856,0.086,0.0848,0.0891,0.0908,0.0938,0.0947,0.0936,0.0991,0.0974,0.1035,0.1035,0.1041,0.1062,0.1072,0.1091,0.1071,0.1071,0.1047,0.1093,0.1102,0.1101,0.1101,0.1101,0.1101,0.1102,0,0.0852,0.0859,0.0872,0.0883,0.0881,0.0904,0.092,0.0939,0.0956,0.0964,0.0992,0.1007,0.1029,0.1037,0.105,0.1079,0.1083,0.1087,0.1078,0.1077,0.1059,0.1098,0.1134,0.1138,0.1101,0.11,0.11,0,0.0864,0.0856,0.0851,0.0843,0.0845,0.0859,0.0852,0.0876,0.0896,0.0911,0.0922,0.0946,0.0968,0.0995,0.1024,0.1021,0.1042,0.1067,0.1069,0.1049,0.1082,0.1091,0.1137,0.1296,0.1098,0.1098,0.1098,0,0.0832,0.0839,0.0815,0.0821,0.083,0.082,0.0824,0.0844,0.0851,0.087,0.0885,0.0902,0.0933,0.0948,0.1005,0.1008,0.1036,0.1058,0.108,0.1081,0.1091,0.1094,0.1258,0.106,0.106,0.106,0.106,0,0.0824,0.0811,0.0789,0.0782,0.0752,0.0773,0.0753,0.0771,0.0792,0.0796,0.0846,0.0869,0.0923,0.0955,0.0983,0.1025,0.1021,0.1061,0.1078,0.1109,0.1113,0.1234,0.1322,0.106,0.106,0.106,0.106,0,0.0808,0.0798,0.0772,0.075,0.0738,0.072,0.0716,0.0712,0.0742,0.0753,0.0763,0.0845,0.0893,0.0939,0.0987,0.1016,0.1144,0.1059,0.1088,0.1108,0.1272,0.136,0.1485,0.1587,0.1077,0.1077,0.1078,0,0.0807,0.078,0.0739,0.072,0.071,0.0679,0.0666,0.0682,0.0676,0.074,0.0743,0.0815,0.0862,0.0945,0.1003,0.1042,0.1174,0.1105,0.112,0.1277,0.1388,0.1449,0.1531,0.1161,0.1161,0.1162,0.1163,0,0.0791,0.0767,0.0742,0.0697,0.0672,0.0636,0.0608,0.0594,0.0617,0.063,0.0675,0.0728,0.0853,0.0953,0.1033,0.1061,0.126,0.1119,0.1283,0.1459,0.1533,0.1641,0.1164,0.1169,0.1168,0.1168,0.1167,0.1167,0.0782,0.0758,0.0718,0.0676,0.0645,0.0593,0.055,0.0515,0.0493,0.0481,0.0583,0.0644,0.0931,0.1062,0.1119,0.1322,0.1317,0.1387,0.1477,0.1519,0.1637,0.1164,0.1189,0.1188,0.1188,0.1188,0.1187,0,0.0754,0.0726,0.0698,0.0644,0.06,0.0584,0.0516,0.0462,0.0397,0.0381,0.0402,0.0721,0.097,0.1225,0.153,0.1669,0.1735,0.1765,0.1887,0.195,0.1529,0.1555,0.166,0.166,0.1659,0.1659,0.1659,0.1659,0.0743,0.0702,0.0685,0.061,0.057,0.0502,0.0452,0.0366,0.0317,0.033,0.0434,0.0556,0.1117,0.1708,0.2048,0.2074,0.2306,0.2273,0.2391,0.2134,0.2107,0.2081,0.2127,0.235,0.2351,0.2798,0.2802,0.2806]}],[{"header":{"parameterUnit":"m.s-1","parameterCategory":2,"la1":30.2991,"la2":30.254,"lo1":-89.0895,"lo2":-89.0444,"dy":0.0017,"dx":0.0017,"nx":28,"ny":28,"refTime":"2023-07-23T21:00:00:Z","depth":"2","parameterNumber":2,"parameterNumberName":"U-component_of_CURRENTS"},"data":[0,0,0,0,0,0,0,0,0,0,0,0,0,0,0,0,0,0,0,0,0,0,0,0,0,0,0,0,0,0,0,0,0,0,0,0,0,0,0,0,0,0,0,0,0,0,0,0,0,0,0,0,0,0,0,0,0,0,-0.2285,-0.2284,0,-0.2222,-0.2221,-0.222,-0.2143,-0.2142,-0.2141,-0.214,-0.2018,-0.2016,-0.2013,0,0,0,0,0,0,0,0,0,0,0,0,0,-0.2286,-0.2286,-0.2285,-0.2284,-0.2284,-0.2222,-0.2221,-0.222,-0.2143,-0.2142,-0.214,-0.2139,-0.2019,-0.2016,-0.2013,0,0,0,0,0,0,0,0,0,0,0,0,0,-0.2258,-0.2287,-0.2285,-0.224,-0.2235,-0.2223,-0.2221,-0.222,-0.2143,-0.2142,-0.214,-0.2139,-0.202,-0.2016,-0.2013,-0.2021,0,0,-0.2002,-0.2001,0,0,0,0,0,0,0,0,-0.226,-0.2258,-0.2247,-0.2243,-0.2238,-0.2191,-0.2177,-0.2151,-0.2143,-0.2175,-0.214,-0.2138,-0.2073,-0.2065,-0.2054,-0.2015,-0.201,-0.2002,-0.2,-0.1998,-0.1997,0,0,0,0,0,0,0,-0.2262,-0.226,-0.2257,-0.2247,-0.2241,-0.2205,-0.22,-0.2172,-0.213,-0.2172,-0.2167,-0.2165,-0.207,-0.2057,-0.205,-0.2008,-0.2002,-0.1999,-0.1997,-0.1995,-0.1943,-0.1944,0,0,0,0,0,0,-0.228,-0.2262,-0.2259,-0.2256,-0.2249,-0.2207,-0.2201,-0.2205,-0.2131,-0.212,-0.2166,-0.2162,-0.2064,-0.2054,-0.2046,-0.2019,-0.1998,-0.1995,-0.1993,-0.1942,-0.1943,-0.1944,0,0,0,0,0,0,-0.228,-0.2281,-0.2262,-0.2259,-0.2254,-0.2209,-0.2215,-0.2205,-0.2179,-0.2128,-0.2115,-0.2149,-0.2062,-0.205,-0.202,-0.2014,-0.1993,-0.199,-0.1941,-0.1943,-0.1943,-0.1985,0,0,0,0,0,0,-0.2281,-0.2281,-0.2286,-0.2261,-0.2255,-0.2263,-0.2216,-0.2205,-0.2183,-0.2175,-0.211,-0.2097,-0.206,-0.2026,-0.2016,-0.2009,-0.1988,-0.1941,-0.1942,-0.1943,-0.1983,-0.1988,-0.1991,0,0,0,0,0,-0.2281,-0.2308,-0.2287,-0.2286,-0.2266,-0.2264,-0.2258,-0.2218,-0.2183,-0.2186,-0.2137,-0.2099,-0.2027,-0.2024,-0.2013,-0.2004,-0.194,-0.1942,-0.1943,-0.1981,-0.1987,-0.1991,0,0,0,0,0,0,-0.2317,-0.2302,-0.2278,-0.23,-0.2283,-0.2252,-0.2249,-0.2219,-0.2183,-0.2166,-0.2108,-0.2094,-0.2068,-0.2037,-0.2035,-0.1996,-0.1977,-0.1977,-0.201,-0.2015,-0.2019,-0.203,-0.1985,0,0,0,0,0,-0.2327,-0.2333,-0.2316,-0.2326,-0.2321,-0.228,-0.227,-0.2246,-0.2214,-0.2194,-0.2147,-0.2101,-0.2071,-0.2043,-0.2018,-0.1993,-0.1947,-0.1982,-0.1986,-0.199,-0.1994,-0.1928,-0.1926,-0.1949,-0.1949,-0.1949,0,0,-0.2339,-0.2333,-0.2333,-0.2332,-0.2309,-0.231,-0.227,-0.2262,-0.2251,-0.2188,-0.2153,-0.2119,-0.2072,-0.2048,-0.2032,-0.2015,-0.1959,-0.1992,-0.1995,-0.1997,-0.1929,-0.1926,-0.1924,-0.195,-0.195,-0.195,0,0,-0.2371,-0.2363,-0.2376,-0.237,-0.2351,-0.2332,-0.2331,-0.2299,-0.227,-0.2245,-0.2197,-0.2164,-0.2108,-0.2076,-0.2051,-0.2066,-0.1993,-0.2052,-0.2066,-0.2002,-0.1999,-0.1996,-0.1928,-0.1918,-0.2042,-0.2042,-0.2042,0,-0.2379,-0.2391,-0.238,-0.2392,-0.2375,-0.2343,-0.2342,-0.2329,-0.2287,-0.2251,-0.224,-0.2151,-0.2124,-0.2077,-0.209,-0.2074,-0.2019,-0.2048,-0.2006,-0.2002,-0.1998,-0.1928,-0.1917,-0.2045,-0.2044,-0.2044,-0.2044,0,-0.2421,-0.242,-0.2429,-0.2422,-0.2415,-0.2411,-0.239,-0.2369,-0.2325,-0.2291,-0.2236,-0.2201,-0.2135,-0.2133,-0.2118,-0.2075,-0.204,-0.2026,-0.1989,-0.1998,-0.1924,-0.1912,-0.2048,-0.2047,-0.2046,-0.2046,0,0,-0.2431,-0.245,-0.2443,-0.2428,-0.242,-0.241,-0.2401,-0.2361,-0.2321,-0.2293,-0.2226,-0.2209,-0.2168,-0.2141,-0.2111,-0.2074,-0.2014,-0.2042,-0.2038,-0.1969,-0.1854,-0.1771,-0.1749,-0.198,-0.1978,-0.1977,-0.1811,0,-0.2441,-0.2466,-0.2467,-0.2454,-0.2451,-0.2417,-0.2403,-0.2366,-0.232,-0.226,-0.2217,-0.216,-0.2176,-0.2132,-0.2103,-0.2034,-0.1984,-0.2059,-0.1862,-0.1856,-0.1776,-0.1733,-0.1669,-0.151,-0.1798,-0.1796,-0.1795,0,-0.2455,-0.2465,-0.2466,-0.2435,-0.2427,-0.2419,-0.2346,-0.2331,-0.2264,-0.2224,-0.2167,-0.2123,-0.2071,-0.2081,-0.1966,-0.2005,-0.1939,-0.1893,-0.1885,-0.1784,-0.175,-0.155,-0.1476,-0.1773,-0.1775,-0.1776,-0.1778,0,-0.2434,-0.2442,-0.2431,-0.2427,-0.2412,-0.2381,-0.2359,-0.2304,-0.2266,-0.2189,-0.2143,-0.2072,-0.2017,-0.1942,-0.187,-0.1896,-0.1732,-0.1742,-0.1602,-0.1595,-0.1491,-0.1478,-0.1649,-0.1649,-0.165,-0.165,-0.1651,0,-0.2424,-0.2405,-0.2419,-0.241,-0.2367,-0.2364,-0.2299,-0.2268,-0.2214,-0.2151,-0.2118,-0.2051,-0.198,-0.1884,-0.1827,-0.1666,-0.1683,-0.1588,-0.1539,-0.1504,-0.1494,-0.1693,-0.1701,-0.1644,-0.1645,-0.1647,-0.1648,0,-0.2387,-0.2402,-0.2383,-0.2371,-0.2355,-0.2321,-0.2269,-0.2231,-0.2193,-0.2109,-0.2081,-0.2007,-0.1869,-0.1789,-0.1645,-0.1586,-0.1459,-0.14,-0.1365,-0.1315,-0.1374,-0.1385,-0.1202,-0.1197,-0.1194,-0.119,-0.1188,0,-0.2368,-0.2363,-0.2347,-0.2327,-0.2313,-0.2269,-0.2236,-0.2207,-0.2164,-0.2072,-0.2023,-0.1892,-0.1786,-0.1553,-0.1424,-0.1258,-0.1319,-0.1081,-0.1127,-0.1352,-0.1324,-0.1342,-0.1358,-0.1003,-0.0999,-0.0996,-0.0993,0,-0.2318,-0.2315,-0.2301,-0.2267,-0.2232,-0.219,-0.2141,-0.2112,-0.2062,-0.2015,-0.191,-0.1828,-0.1611,-0.1382,-0.117,-0.1086,-0.1105,-0.1006,-0.1213,-0.1137,-0.1153,-0.113,-0.1155,-0.0964,-0.0967,-0.0969,-0.0971,-0.0972,-0.2255,-0.224,-0.2219,-0.2168,-0.2142,-0.2081,-0.2012,-0.2006,-0.1937,-0.1834,-0.1816,-0.1596,-0.1418,-0.1025,-0.0931,-0.0824,-0.0897,-0.0818,-0.0833,-0.085,-0.0867,-0.0877,-0.0638,-0.0639,-0.064,-0.0641,-0.0641,0,-0.2145,-0.213,-0.2113,-0.2041,-0.1979,-0.1982,-0.1915,-0.1849,-0.1772,-0.1674,-0.1605,-0.1186,-0.1016,-0.0814,-0.0624,-0.0577,-0.0647,-0.0525,-0.0614,-0.0641,-0.0666,-0.068,-0.0398,-0.0397,-0.0396,-0.0396,0,0,-0.2074,-0.2019,-0.2016,-0.1867,-0.1821,-0.1681,-0.162,-0.1603,-0.1497,-0.128,-0.1063,-0.1067,-0.0814,-0.0589,-0.0554,-0.0447,-0.0568,-0.044,-0.0637,-0.0775,-0.08,-0.0828,-0.0877,0,0,0,0,0]},{"header":{"parameterUnit":"m.s-1","parameterCategory":2,"la1":30.2991,"la2":30.254,"lo1":-89.0895,"lo2":-89.0444,"dy":0.0017,"dx":0.0017,"nx":28,"ny":28,"refTime":"2023-07-23T21:00:00:Z","depth":"2","parameterNumber":3,"parameterNumberName":"V-component_of_CURRENTS"},"data":[0,0,0,0,0,0,0,0,0,0,0,0,0,0,0,0,0,0,0,0,0,0,0,0,0,0,0,0,0,0,0,0,0,0,0,0,0,0,0,0,0,0,0,0,0,0,0,0,0,0,0,0,0,0,0,0,0,0,-0.0426,-0.0426,0,-0.0385,-0.0385,-0.0384,-0.0394,-0.0395,-0.0396,-0.0397,-0.0395,-0.0394,-0.0393,0,0,0,0,0,0,0,0,0,0,0,0,0,-0.045,-0.045,-0.0426,-0.0426,-0.0425,-0.0385,-0.0385,-0.0384,-0.0394,-0.0395,-0.0396,-0.0397,-0.0395,-0.0394,-0.0393,0,0,0,0,0,0,0,0,0,0,0,0,0,-0.0428,-0.045,-0.0427,-0.0426,-0.0425,-0.0385,-0.0385,-0.0384,-0.0394,-0.0395,-0.0396,-0.0397,-0.0395,-0.0394,-0.0393,-0.0361,0,0,-0.0389,-0.0389,0,0,0,0,0,0,0,0,-0.0429,-0.0427,-0.0426,-0.0426,-0.0425,-0.0396,-0.0392,-0.0378,-0.0393,-0.0406,-0.0397,-0.0398,-0.0398,-0.0397,-0.0386,-0.0361,-0.0361,-0.0389,-0.0389,-0.0388,-0.0388,0,0,0,0,0,0,0,-0.0431,-0.0428,-0.041,-0.0426,-0.0425,-0.0405,-0.0404,-0.0389,-0.0396,-0.0405,-0.0405,-0.04,-0.0398,-0.0387,-0.0386,-0.0361,-0.0389,-0.0388,-0.0388,-0.0387,-0.0333,-0.0333,0,0,0,0,0,0,-0.0438,-0.043,-0.0411,-0.0409,-0.043,-0.0404,-0.0403,-0.0404,-0.0396,-0.0395,-0.0399,-0.0401,-0.0388,-0.0387,-0.0386,-0.0348,-0.0388,-0.0387,-0.0386,-0.0334,-0.0333,-0.0333,0,0,0,0,0,0,-0.0439,-0.0437,-0.0413,-0.0418,-0.0414,-0.0403,-0.0404,-0.0403,-0.0403,-0.0391,-0.0392,-0.0403,-0.0389,-0.0387,-0.0384,-0.0348,-0.0386,-0.0385,-0.0335,-0.0334,-0.0333,-0.0272,0,0,0,0,0,0,-0.044,-0.0437,-0.0446,-0.0419,-0.0414,-0.0389,-0.0403,-0.0401,-0.0398,-0.04,-0.0394,-0.0395,-0.039,-0.0386,-0.0383,-0.0347,-0.0384,-0.0336,-0.0334,-0.0333,-0.0275,-0.0269,-0.0264,0,0,0,0,0,-0.0441,-0.0442,-0.0447,-0.0445,-0.0425,-0.0389,-0.0384,-0.038,-0.0397,-0.0388,-0.0394,-0.0395,-0.0375,-0.0384,-0.0381,-0.0344,-0.0337,-0.0335,-0.0333,-0.0278,-0.0271,-0.0264,0,0,0,0,0,0,-0.0458,-0.0442,-0.0447,-0.0446,-0.0421,-0.0391,-0.0385,-0.0383,-0.0379,-0.0395,-0.0389,-0.0389,-0.0367,-0.0373,-0.0383,-0.0327,-0.0354,-0.0352,-0.0313,-0.0306,-0.0301,-0.0274,-0.0383,0,0,0,0,0,-0.0465,-0.0464,-0.044,-0.0438,-0.0428,-0.041,-0.0399,-0.0398,-0.0387,-0.0387,-0.0378,-0.0374,-0.0353,-0.0347,-0.0333,-0.0308,-0.0302,-0.0283,-0.0277,-0.0272,-0.025,-0.0216,-0.0205,-0.0327,-0.0327,-0.0327,0,0,-0.0472,-0.0463,-0.0463,-0.0441,-0.0426,-0.0388,-0.0407,-0.0394,-0.0358,-0.0387,-0.035,-0.0355,-0.0344,-0.0309,-0.0299,-0.0312,-0.0239,-0.027,-0.0266,-0.0246,-0.0213,-0.0201,-0.019,-0.0326,-0.0326,-0.0327,0,0,-0.0462,-0.0475,-0.0461,-0.0435,-0.0414,-0.0393,-0.039,-0.0363,-0.0351,-0.0322,-0.0328,-0.0312,-0.029,-0.0259,-0.0245,-0.0202,-0.021,-0.021,-0.0157,-0.0124,-0.0113,-0.0104,-0.0094,-0.0084,-0.0208,-0.0207,-0.0207,0,-0.047,-0.0451,-0.0449,-0.0416,-0.0393,-0.039,-0.0355,-0.0326,-0.03,-0.0286,-0.0308,-0.0257,-0.025,-0.0187,-0.0171,-0.0182,-0.0185,-0.0181,-0.0115,-0.0105,-0.0096,-0.0089,-0.0078,-0.0204,-0.0205,-0.0205,-0.0205,0,-0.0435,-0.042,-0.0406,-0.0362,-0.0333,-0.031,-0.0267,-0.0246,-0.0242,-0.0215,-0.0172,-0.0162,-0.0135,-0.0124,-0.0131,-0.0061,-0.0092,-0.0111,-0.0127,-0.0079,-0.0076,-0.0066,-0.02,-0.0201,-0.0202,-0.0203,0,0,-0.0464,-0.0395,-0.0395,-0.0375,-0.0311,-0.0294,-0.0222,-0.0167,-0.0145,-0.0107,-0.0067,-0.001,-0.0028,-0.0012,-0.0018,0.002,0.0078,-0.0019,-0.0019,-0.0002,0.0128,0.0175,0.019,0.0061,0.0063,0.0065,0.0099,0,-0.0442,-0.039,-0.0345,-0.0291,-0.0267,-0.0223,-0.0161,-0.0115,-0.0085,-0.0046,-0.0008,0.0018,0.0024,0.0013,0.0064,0.0064,0.0108,0.0069,0.0073,0.0073,0.0118,0.0206,0.0044,0.0068,0.0109,0.0111,0.0112,0,-0.0433,-0.0401,-0.035,-0.0285,-0.0269,-0.0228,-0.0169,-0.0113,-0.0038,-0.0019,0.0034,0.0047,0.0119,0.0096,0.0178,0.0143,0.0153,0.0161,0.0161,0.02,0.0142,0.003,0.0085,0.0128,0.0127,0.0125,0.0124,0,-0.05,-0.0414,-0.0385,-0.0359,-0.0272,-0.0245,-0.0199,-0.0123,-0.0093,-0.0015,-0.0004,0.0088,0.01,0.016,0.0194,0.0176,0.0265,0.0235,0.0299,0.0299,0.0165,0.0152,0.0312,0.0312,0.0312,0.0312,0.0312,0,-0.0518,-0.05,-0.0424,-0.0415,-0.0392,-0.0307,-0.0277,-0.0219,-0.0143,-0.0106,-0.0015,0.0028,0.0114,0.0172,0.0211,0.0298,0.0283,0.0345,0.0335,0.018,0.0169,0.0219,0.0208,0.0313,0.0313,0.0312,0.0312,0,-0.0609,-0.055,-0.0528,-0.0449,-0.0431,-0.0427,-0.0349,-0.0325,-0.0239,-0.0189,-0.0167,-0.003,0.0077,0.0162,0.025,0.0308,0.0382,0.0408,0.0221,0.0193,0.0385,0.0377,0.0503,0.0506,0.0508,0.051,0.0511,0,-0.0646,-0.0646,-0.0595,-0.0595,-0.0565,-0.0537,-0.0514,-0.0406,-0.0367,-0.0217,-0.0197,-0.0065,0.0081,0.0255,0.0335,0.0446,0.0432,0.0354,0.0335,0.044,0.0416,0.0404,0.0393,0.0149,0.0147,0.0146,0.0145,0,-0.0728,-0.072,-0.0708,-0.0712,-0.07,-0.0665,-0.0613,-0.059,-0.0448,-0.0355,-0.0186,-0.0039,0.0151,0.0242,0.0375,0.0414,0.0337,0.0339,0.0483,0.0157,0.0118,0.0091,0.0089,0.0133,0.0134,0.0135,0.0136,0.0136,-0.0804,-0.0831,-0.0822,-0.0825,-0.0807,-0.0769,-0.073,-0.064,-0.0535,-0.039,-0.0247,-0.0077,-0.0026,0.0158,0.0269,0.0348,0.039,0.0306,0.0304,0.0304,0.0289,0.026,0.0296,0.0298,0.03,0.0301,0.0302,0,-0.0889,-0.0903,-0.0924,-0.0911,-0.0898,-0.0857,-0.077,-0.0698,-0.055,-0.0469,-0.0299,-0.0249,-0.0144,-0.003,0.0097,0.0231,0.0197,0.0208,0.0067,0.0075,0.0083,0.0053,-0.0001,0.0,0.0001,0.0002,0,0,-0.0935,-0.0987,-0.0993,-0.0989,-0.0964,-0.0894,-0.0828,-0.0703,-0.0613,-0.0479,-0.0426,-0.0429,-0.0245,-0.028,-0.0167,-0.0065,-0.0004,-0.0053,0.0153,-0.0026,-0.0018,0.0079,0.0035,0,0,0,0,0]}],[{"header":{"parameterUnit":"m.s-1","parameterCategory":2,"la1":30.2991,"la2":30.254,"lo1":-89.0895,"lo2":-89.0444,"dy":0.0017,"dx":0.0017,"nx":28,"ny":28,"refTime":"2023-07-23T21:00:00:Z","depth":"4","parameterNumber":2,"parameterNumberName":"U-component_of_CURRENTS"},"data":[0,0,0,0,0,0,0,0,0,0,0,0,0,0,0,0,0,0,0,0,0,0,0,0,0,0,0,0,0,0,0,0,0,0,0,0,0,0,0,0,0,0,0,0,0,0,0,0,0,0,0,0,0,0,0,0,0,0,-0.0693,-0.0694,0,-0.0742,-0.0742,-0.0743,-0.0776,-0.0777,-0.0777,-0.0778,-0.0837,-0.0838,-0.084,0,0,0,0,0,0,0,0,0,0,0,0,0,-0.0652,-0.0652,-0.0693,-0.0694,-0.0695,-0.0742,-0.0742,-0.0743,-0.0776,-0.0777,-0.0777,-0.0778,-0.0837,-0.0838,-0.084,0,0,0,0,0,0,0,0,0,0,0,0,0,-0.068,-0.0652,-0.0693,-0.0719,-0.0721,-0.0742,-0.0742,-0.0743,-0.0776,-0.0777,-0.0778,-0.0778,-0.0836,-0.0838,-0.084,-0.0838,0,0,-0.0845,-0.0846,0,0,0,0,0,0,0,0,-0.0678,-0.0681,-0.0714,-0.0717,-0.072,-0.0755,-0.075,-0.0776,-0.0776,-0.0753,-0.0778,-0.0778,-0.0812,-0.0815,-0.0821,-0.0841,-0.0844,-0.0846,-0.0847,-0.0847,-0.0848,0,0,0,0,0,0,0,-0.0676,-0.068,-0.0711,-0.0715,-0.0719,-0.0735,-0.074,-0.0755,-0.0777,-0.0756,-0.0759,-0.0767,-0.0813,-0.0819,-0.0822,-0.0845,-0.0846,-0.0847,-0.0848,-0.0849,-0.0941,-0.0942,0,0,0,0,0,0,-0.0672,-0.0678,-0.0709,-0.0712,-0.0703,-0.0736,-0.074,-0.0742,-0.0777,-0.0783,-0.0766,-0.0768,-0.0815,-0.082,-0.0824,-0.089,-0.0847,-0.0849,-0.085,-0.0939,-0.0941,-0.0943,0,0,0,0,0,0,-0.0671,-0.0674,-0.0707,-0.0698,-0.0704,-0.0736,-0.0737,-0.0743,-0.0776,-0.0785,-0.0792,-0.0797,-0.0816,-0.0822,-0.0849,-0.089,-0.085,-0.0852,-0.0938,-0.094,-0.0942,-0.0979,0,0,0,0,0,0,-0.0669,-0.0673,-0.0687,-0.0697,-0.0704,-0.0722,-0.0737,-0.0743,-0.0779,-0.0783,-0.0813,-0.0818,-0.0817,-0.0847,-0.0851,-0.0892,-0.0853,-0.0936,-0.0939,-0.0941,-0.0976,-0.0982,-0.0987,0,0,0,0,0,-0.0668,-0.0682,-0.0687,-0.0692,-0.0717,-0.0723,-0.0727,-0.0751,-0.078,-0.0786,-0.0811,-0.0818,-0.0867,-0.0848,-0.0854,-0.0896,-0.0935,-0.0938,-0.0941,-0.0974,-0.0981,-0.0987,0,0,0,0,0,0,-0.0668,-0.0687,-0.0693,-0.0712,-0.0717,-0.0729,-0.0752,-0.0768,-0.0794,-0.0814,-0.0824,-0.083,-0.0872,-0.0876,-0.0856,-0.0931,-0.0907,-0.0911,-0.093,-0.0937,-0.0943,-0.0966,-0.0854,0,0,0,0,0,-0.0674,-0.069,-0.0699,-0.0713,-0.0724,-0.0744,-0.076,-0.0773,-0.0792,-0.0807,-0.0833,-0.0863,-0.0884,-0.0904,-0.0919,-0.0955,-0.0959,-0.099,-0.0996,-0.1,-0.1024,-0.1043,-0.1052,-0.0953,-0.0953,-0.0953,0,0,-0.0677,-0.069,-0.07,-0.0715,-0.0731,-0.0747,-0.0756,-0.0783,-0.0811,-0.0809,-0.0869,-0.0882,-0.0897,-0.0934,-0.0956,-0.0947,-0.1029,-0.1004,-0.1008,-0.103,-0.1047,-0.1057,-0.1065,-0.0955,-0.0954,-0.0954,0,0,-0.0675,-0.0705,-0.0713,-0.073,-0.0757,-0.0769,-0.0783,-0.0812,-0.0845,-0.089,-0.0898,-0.0928,-0.0979,-0.0984,-0.0996,-0.1043,-0.1053,-0.1066,-0.1119,-0.1137,-0.1145,-0.1153,-0.1159,-0.1167,-0.1073,-0.1073,-0.1073,0,-0.0675,-0.069,-0.0714,-0.073,-0.0752,-0.0783,-0.0797,-0.0834,-0.0871,-0.0891,-0.0921,-0.0989,-0.1003,-0.1032,-0.1065,-0.1057,-0.1072,-0.1089,-0.1144,-0.1151,-0.1158,-0.1163,-0.1171,-0.1075,-0.1075,-0.1075,-0.1075,0,-0.0673,-0.07,-0.0714,-0.0745,-0.0766,-0.079,-0.0834,-0.0867,-0.0925,-0.0955,-0.1018,-0.1044,-0.1081,-0.1099,-0.1111,-0.1167,-0.1163,-0.1142,-0.1124,-0.117,-0.1172,-0.118,-0.1079,-0.1078,-0.1077,-0.1077,0,0,-0.0637,-0.0696,-0.0705,-0.0735,-0.0783,-0.0804,-0.0848,-0.0884,-0.0918,-0.0997,-0.1039,-0.1113,-0.1143,-0.1161,-0.1173,-0.1213,-0.1276,-0.1225,-0.1225,-0.1228,-0.1326,-0.1132,-0.1121,-0.1275,-0.1277,-0.1278,-0.1303,0,-0.0627,-0.0658,-0.0691,-0.0742,-0.0769,-0.0815,-0.0853,-0.0898,-0.0945,-0.0997,-0.1061,-0.1116,-0.1163,-0.1192,-0.1244,-0.1278,-0.1303,-0.1272,-0.1286,-0.1286,-0.1104,-0.1125,-0.1284,-0.1309,-0.1311,-0.1312,-0.1313,0,-0.0611,-0.0643,-0.0673,-0.0753,-0.077,-0.0803,-0.0859,-0.0908,-0.0968,-0.1011,-0.1075,-0.1117,-0.1215,-0.1231,-0.1341,-0.1331,-0.1344,-0.1362,-0.1361,-0.1177,-0.1106,-0.1257,-0.1326,-0.1325,-0.1324,-0.1323,-0.1323,0,-0.0575,-0.0641,-0.0668,-0.0698,-0.0776,-0.0803,-0.0857,-0.0905,-0.0953,-0.1025,-0.105,-0.1154,-0.1238,-0.1289,-0.1323,-0.1366,-0.1391,-0.1432,-0.1255,-0.1242,-0.1395,-0.1386,-0.1469,-0.1469,-0.1469,-0.1468,-0.1468,0,-0.0555,-0.0592,-0.0663,-0.0691,-0.0739,-0.0809,-0.0856,-0.0906,-0.0973,-0.1005,-0.1079,-0.1078,-0.1271,-0.1283,-0.1312,-0.1283,-0.1374,-0.1271,-0.1234,-0.1407,-0.1401,-0.1399,-0.139,-0.1469,-0.1469,-0.1469,-0.1469,0,-0.0516,-0.0555,-0.061,-0.0696,-0.0721,-0.0773,-0.087,-0.0895,-0.097,-0.1002,-0.1035,-0.1106,-0.1134,-0.1195,-0.1266,-0.1259,-0.1226,-0.1158,-0.1304,-0.1274,-0.1094,-0.1088,-0.1069,-0.1063,-0.1057,-0.1052,-0.1048,0,-0.0491,-0.0512,-0.0606,-0.0629,-0.0673,-0.0748,-0.0776,-0.0882,-0.0897,-0.0954,-0.0945,-0.0997,-0.1015,-0.0957,-0.1036,-0.1042,-0.1017,-0.1022,-0.1128,-0.1087,-0.1055,-0.1057,-0.1058,-0.1039,-0.1038,-0.1036,-0.1035,0,-0.046,-0.0499,-0.0546,-0.0588,-0.0629,-0.0667,-0.0721,-0.0731,-0.0825,-0.0893,-0.0832,-0.082,-0.0818,-0.0864,-0.0838,-0.083,-0.1056,-0.0965,-0.0981,-0.1082,-0.105,-0.1024,-0.1032,-0.1015,-0.1018,-0.102,-0.1021,0,-0.0442,-0.046,-0.0512,-0.0554,-0.0581,-0.0569,-0.0616,-0.0621,-0.0662,-0.0741,-0.0688,-0.0693,-0.0776,-0.0738,-0.0676,-0.0684,-0.0754,-0.0794,-0.0822,-0.0844,-0.0754,-0.068,-0.0501,0,0,0,0,0,-0.0423,-0.0435,-0.0466,-0.0489,-0.0504,-0.051,-0.0558,-0.06,-0.067,-0.0609,-0.0667,-0.0615,-0.0593,-0.0571,-0.0553,-0.0612,-0.0765,-0.0588,-0.0829,-0.0907,-0.0929,-0.0843,0,0,0,0,0,0,-0.0404,-0.0435,-0.0453,-0.0417,-0.0401,-0.0399,-0.042,-0.0469,-0.0438,-0.0514,-0.0489,-0.0558,-0.0531,-0.0585,-0.0525,-0.0533,-0.0672,-0.061,-0.0608,-0.0894,-0.0914,-0.0933,-0.0851,0,0,0,0,0]},{"header":{"parameterUnit":"m.s-1","parameterCategory":2,"la1":30.2991,"la2":30.254,"lo1":-89.0895,"lo2":-89.0444,"dy":0.0017,"dx":0.0017,"nx":28,"ny":28,"refTime":"2023-07-23T21:00:00:Z","depth":"4","parameterNumber":3,"parameterNumberName":"V-component_of_CURRENTS"},"data":[0,0,0,0,0,0,0,0,0,0,0,0,0,0,0,0,0,0,0,0,0,0,0,0,0,0,0,0,0,0,0,0,0,0,0,0,0,0,0,0,0,0,0,0,0,0,0,0,0,0,0,0,0,0,0,0,0,0,-0.0451,-0.0451,0,-0.0476,-0.0476,-0.0477,-0.0487,-0.0487,-0.0487,-0.0486,-0.053,-0.0531,-0.0533,0,0,0,0,0,0,0,0,0,0,0,0,0,-0.0402,-0.0403,-0.0451,-0.0451,-0.0451,-0.0476,-0.0476,-0.0477,-0.0487,-0.0487,-0.0487,-0.0486,-0.053,-0.0531,-0.0533,0,0,0,0,0,0,0,0,0,0,0,0,0,-0.0426,-0.0404,-0.0451,-0.0459,-0.046,-0.0476,-0.0476,-0.0477,-0.0487,-0.0487,-0.0487,-0.0486,-0.0529,-0.0531,-0.0533,-0.0548,0,0,-0.0539,-0.054,0,0,0,0,0,0,0,0,-0.0424,-0.0427,-0.0457,-0.0458,-0.0459,-0.0478,-0.0475,-0.0501,-0.0487,-0.0477,-0.0486,-0.0486,-0.0514,-0.0517,-0.0523,-0.055,-0.0552,-0.0539,-0.054,-0.0541,-0.0541,0,0,0,0,0,0,0,-0.0423,-0.0426,-0.0461,-0.0458,-0.0459,-0.0458,-0.0461,-0.048,-0.0497,-0.0478,-0.0479,-0.0481,-0.0515,-0.0521,-0.0524,-0.0553,-0.0539,-0.0541,-0.0542,-0.0542,-0.0635,-0.0636,0,0,0,0,0,0,-0.0419,-0.0425,-0.0461,-0.0462,-0.044,-0.0459,-0.0463,-0.0472,-0.0497,-0.05,-0.0481,-0.0481,-0.0518,-0.0522,-0.0526,-0.0586,-0.0541,-0.0543,-0.0544,-0.0634,-0.0635,-0.0637,0,0,0,0,0,0,-0.0418,-0.0423,-0.046,-0.0443,-0.0448,-0.046,-0.0471,-0.0473,-0.049,-0.0498,-0.0502,-0.0497,-0.0518,-0.0523,-0.0565,-0.0586,-0.0543,-0.0545,-0.0632,-0.0634,-0.0636,-0.0681,0,0,0,0,0,0,-0.0417,-0.0422,-0.0433,-0.0443,-0.0448,-0.0485,-0.0471,-0.0474,-0.0491,-0.0492,-0.0513,-0.0516,-0.0518,-0.0562,-0.0567,-0.0588,-0.0547,-0.063,-0.0633,-0.0635,-0.0678,-0.0684,-0.069,0,0,0,0,0,-0.0415,-0.0435,-0.0433,-0.0438,-0.0461,-0.0486,-0.0489,-0.0497,-0.0492,-0.051,-0.0527,-0.0516,-0.058,-0.0565,-0.057,-0.0593,-0.0629,-0.0632,-0.0635,-0.0675,-0.0683,-0.069,0,0,0,0,0,0,-0.0425,-0.0438,-0.0437,-0.0461,-0.0477,-0.0488,-0.0503,-0.0505,-0.0532,-0.0535,-0.0539,-0.0545,-0.059,-0.0587,-0.057,-0.0627,-0.0601,-0.0605,-0.0629,-0.0637,-0.0643,-0.0632,-0.0548,0,0,0,0,0,-0.043,-0.0447,-0.0458,-0.048,-0.0487,-0.0496,-0.0507,-0.0514,-0.0533,-0.0545,-0.0563,-0.058,-0.0604,-0.0617,-0.064,-0.0672,-0.0647,-0.0688,-0.0694,-0.0699,-0.0695,-0.0679,-0.0682,-0.0646,-0.0646,-0.0646,0,0,-0.0444,-0.0449,-0.0463,-0.0483,-0.0493,-0.0518,-0.0504,-0.0528,-0.0553,-0.0546,-0.0594,-0.0608,-0.062,-0.066,-0.0678,-0.0661,-0.0697,-0.0703,-0.0707,-0.0699,-0.0682,-0.0685,-0.0688,-0.0648,-0.0648,-0.0648,0,0,-0.0477,-0.0482,-0.0506,-0.0519,-0.0535,-0.0542,-0.0552,-0.0574,-0.0589,-0.0634,-0.0634,-0.0663,-0.0703,-0.0713,-0.0721,-0.0773,-0.0734,-0.0778,-0.0796,-0.0781,-0.0783,-0.0785,-0.0756,-0.0755,-0.0776,-0.0776,-0.0776,0,-0.0492,-0.0516,-0.0519,-0.0542,-0.0554,-0.0555,-0.0584,-0.0603,-0.064,-0.0647,-0.0659,-0.0707,-0.0727,-0.0753,-0.0777,-0.0786,-0.0761,-0.0767,-0.0787,-0.0788,-0.0789,-0.0759,-0.0757,-0.0778,-0.0778,-0.0778,-0.0778,0,-0.0537,-0.0557,-0.0573,-0.0599,-0.0618,-0.0641,-0.0659,-0.0685,-0.07,-0.0708,-0.0746,-0.0774,-0.0793,-0.081,-0.0815,-0.0831,-0.0806,-0.0799,-0.0764,-0.0795,-0.0762,-0.0759,-0.0782,-0.0781,-0.078,-0.078,0,0,-0.0568,-0.0598,-0.0605,-0.0616,-0.0643,-0.0662,-0.0702,-0.0725,-0.0738,-0.0775,-0.0792,-0.0844,-0.0838,-0.0847,-0.0852,-0.0846,-0.0846,-0.0827,-0.0825,-0.079,-0.0795,-0.0748,-0.0739,-0.0835,-0.0835,-0.0835,-0.0769,0,-0.0599,-0.0638,-0.0652,-0.0697,-0.0713,-0.0724,-0.0755,-0.0776,-0.0793,-0.0814,-0.0823,-0.0851,-0.0856,-0.0871,-0.0866,-0.0859,-0.084,-0.0863,-0.0778,-0.0775,-0.0722,-0.0735,-0.0834,-0.0767,-0.0766,-0.0765,-0.0765,0,-0.0634,-0.0649,-0.0693,-0.072,-0.073,-0.0764,-0.079,-0.082,-0.0835,-0.0845,-0.0856,-0.0862,-0.0878,-0.0875,-0.0851,-0.0862,-0.0831,-0.0813,-0.081,-0.0745,-0.0722,-0.073,-0.0759,-0.0759,-0.076,-0.076,-0.0761,0,-0.0635,-0.0678,-0.0708,-0.072,-0.0756,-0.0782,-0.0805,-0.0826,-0.0844,-0.0864,-0.0873,-0.0875,-0.0895,-0.0857,-0.0832,-0.0841,-0.0782,-0.0789,-0.0705,-0.0701,-0.0742,-0.0741,-0.0749,-0.0749,-0.0749,-0.0749,-0.075,0,-0.0648,-0.0676,-0.0711,-0.0729,-0.0765,-0.0787,-0.0825,-0.0845,-0.0863,-0.0876,-0.0888,-0.0889,-0.0894,-0.0863,-0.0821,-0.0748,-0.0768,-0.0702,-0.0681,-0.0764,-0.0766,-0.0739,-0.0739,-0.0747,-0.0747,-0.0748,-0.0748,0,-0.0649,-0.0674,-0.0707,-0.0748,-0.077,-0.0795,-0.0846,-0.0862,-0.0879,-0.0899,-0.0909,-0.0911,-0.0871,-0.0838,-0.0784,-0.0742,-0.0672,-0.0632,-0.0707,-0.0693,-0.0603,-0.0606,-0.0544,-0.0542,-0.054,-0.0538,-0.0537,0,-0.065,-0.0666,-0.0722,-0.0746,-0.0774,-0.0815,-0.0843,-0.0873,-0.0883,-0.0896,-0.0896,-0.088,-0.0869,-0.0748,-0.0711,-0.061,-0.0595,-0.0561,-0.06,-0.0596,-0.0582,-0.0588,-0.0594,-0.0534,-0.0533,-0.0533,-0.0532,0,-0.064,-0.0666,-0.069,-0.0742,-0.0784,-0.0828,-0.0866,-0.0869,-0.0893,-0.0911,-0.0878,-0.0836,-0.0782,-0.072,-0.0643,-0.0569,-0.0593,-0.0541,-0.0546,-0.0583,-0.0583,-0.0573,-0.058,-0.0526,-0.0527,-0.0527,-0.0528,0,-0.0625,-0.0638,-0.0676,-0.0719,-0.0776,-0.0822,-0.0849,-0.0856,-0.0868,-0.0875,-0.0855,-0.0808,-0.08,-0.0693,-0.0609,-0.0546,-0.054,-0.0531,-0.0536,-0.0543,-0.0566,-0.0568,-0.0482,0,0,0,0,0,-0.0599,-0.0611,-0.0652,-0.07,-0.0761,-0.0803,-0.0852,-0.0868,-0.0884,-0.0858,-0.0857,-0.0796,-0.0698,-0.0653,-0.058,-0.0575,-0.0528,-0.0486,-0.0521,-0.049,-0.0497,-0.0521,0,0,0,0,0,0,-0.0576,-0.0607,-0.0632,-0.0678,-0.0715,-0.0783,-0.0819,-0.0839,-0.0816,-0.0825,-0.0768,-0.0763,-0.0662,-0.0733,-0.0571,-0.0553,-0.0563,-0.0447,-0.0445,-0.0485,-0.0492,-0.0498,-0.0526,0,0,0,0,0]}]]